Latest Coastal Weather Observations for Mackay

IDQ60701

Issued at 3:12 am EST Sunday 5 July 2015 (issued every 10 minutes, with the page automatically refreshed every 10 minutes)

About coastal observations | Map of coastal stations | Coastal observations for QLD | Marine services | Other Formats
Station Details ID: 033119 Name: MACKAY M.O Lat: -21.12 Lon: 149.22 Height: 30.26 m
Data from the previous 72 hours. | See also: Recent months at Mackay
Date/Time
EST
Temp

°C
Wind Pressure Rain
since 9am
mm
Weather Cloud Vis
km
Sea
Height
m
Swell
Dir
 
Speed
knots
Gust
knots
hPa Trend Height
m
Period
s
Dir
05/03:00am 17.1 - 8 10 1018.4 - 0.0 - Partly cloudy - - - - -
05/02:30am 16.9 - - - 1018.8 - - - - - - - - -
05/02:00am 17.1 - - - 1018.8 - - - - - - - - -
05/01:30am 16.9 - - - 1019.3 - - - - - - - - -
05/01:00am 17.2 - 9 13 1019.6 - - - Mostly clear - - - - -
05/12:30am 17.6 - - - 1019.9 - - - - - - - - -
 
Date/Time
EST
Temp

°C
Wind Pressure Rain
since 9am
mm
Weather Cloud Vis
km
Sea
Height
m
Swell
Dir
 
Speed
knots
Gust
knots
hPa Trend Height
m
Period
s
Dir
04/11:30pm 16.9 - - - 1020.2 - - - - - - - - -
04/11:00pm 16.7 - - - 1020.1 - - - - - - - - -
04/10:30pm 16.7 - - - 1020.3 - - - - - - - - -
04/10:00pm 16.6 - - - 1020.3 - - - - - - - - -
04/09:30pm 16.8 - - - 1020.5 - - - - - - - - -
04/09:00pm 17.2 - - - 1020.4 F 0.0 - Mostly cloudy - - - - -
04/08:30pm 17.4 - - - 1020.4 - - - - - - - - -
04/08:00pm 17.9 - - - 1020.2 - - - - - - - - -
04/07:30pm 18.2 - - - 1020.1 - - - - - - - - -
04/07:00pm 18.5 - - - 1019.6 - - - - - - - - -
04/06:30pm 18.7 - - - 1019.5 - - - - - - - - -
04/06:00pm 18.9 - - - 1019.1 R - - Cloudy - - - - -
04/05:30pm 18.9 - - - 1018.9 - - - - - - - - -
04/05:00pm 19.3 - - - 1018.7 - - - - - - - - -
04/04:30pm 19.5 - - - 1018.8 - - - - - - - - -
04/04:00pm 19.9 - - - 1018.4 - - - - - - - - -
04/03:30pm 20.1 - - - 1018.4 - - - - - - - - -
04/03:00pm 20.0 - - - 1018.2 R 0.0 - Mostly clear - - - - -
04/02:30pm 19.8 - - - 1018.5 - - - - - - - - -
04/02:00pm 20.5 - - - 1018.4 - - - - - - - - -
04/01:30pm 20.4 - - - 1018.8 - - - - - - - - -
04/01:00pm 20.1 - - - 1019.1 - - - - - - - - -
04/12:30pm 20.0 - - - 1019.9 - - - - - - - - -
04/12:00pm 19.1 - - - 1020.1 R - - Partly cloudy - - - - -
04/11:30am 19.4 - - - 1020.4 - - - - - - - - -
04/11:00am 19.3 - - - 1020.4 - - - - - - - - -
04/10:30am 19.3 - - - 1020.4 - - - - - - - - -
04/10:00am 18.7 - - - 1020.3 - - - - - - - - -
04/09:30am 17.3 - - - 1020.3 - - - - - - - - -
04/09:00am 17.4 - - - 1020.1 F 0.0 - - - - - - -
04/08:30am 17.2 - - - 1020.3 - - - - - - - - -
04/08:00am 15.4 - - - 1020.0 - - - - - - - - -
04/07:30am 12.9 - - - 1019.8 - - - - - - - - -
04/07:00am 12.6 - - - 1019.6 - - - - - - - - -
04/06:30am 12.2 - - - 1019.3 - - - - - - - - -
04/06:00am 11.9 - - - 1019.3 F - - Cloudy - - - - -
04/05:30am 11.7 - - - 1019.2 - - - - - - - - -
04/05:00am 12.2 - - - 1019.0 - - - - - - - - -
04/04:30am 12.2 - - - 1019.2 - - - - - - - - -
04/04:00am 11.6 - - - 1019.1 - - - - - - - - -
04/03:30am 11.7 - - - 1019.1 - - - - - - - - -
04/03:00am 11.8 - - - 1019.1 - 0.0 - - - - - - -
04/02:30am 11.7 - - - 1019.5 - - - - - - - - -
04/02:00am 12.1 - - - 1019.5 - - - - - - - - -
04/01:30am 12.7 - - - 1020.2 - - - - - - - - -
04/01:00am 13.2 - - - 1020.5 - - - - - - - - -
04/12:30am 13.6 - - - 1020.8 - - - - - - - - -
04/12:00am 14.9 - - - 1021.0 - - - - - - - - -
 
Date/Time
EST
Temp

°C
Wind Pressure Rain
since 9am
mm
Weather Cloud Vis
km
Sea
Height
m
Swell
Dir
 
Speed
knots
Gust
knots
hPa Trend Height
m
Period
s
Dir
03/11:30pm 17.6 - - - 1021.3 - - - - - - - - -
03/11:00pm 17.2 - - - 1021.4 - - - - - - - - -
03/10:30pm 17.6 - - - 1021.5 - - - - - - - - -
03/10:00pm 17.5 - - - 1021.3 - - - - - - - - -
03/09:30pm 17.6 - - - 1021.2 - - - - - - - - -
03/09:00pm 17.8 - - - 1020.9 R 0.0 - - - - - - -
03/08:30pm 18.0 - - - 1020.7 - - - - - - - - -
03/08:00pm 17.9 - - - 1020.4 - - - - - - - - -
03/07:30pm 17.6 - - - 1020.3 - - - - - - - - -
03/07:00pm 17.6 - - - 1020.0 - - - - - - - - -
03/06:30pm 17.7 - - - 1019.7 - - - - - - - - -
03/06:00pm 17.7 - - - 1019.3 R - - - - - - - -
03/05:30pm 17.9 - - - 1019.0 - - - - - - - - -
03/05:00pm 18.5 - - - 1018.5 - - - Mostly clear 10 - - - -
03/04:30pm 18.6 - - - 1018.4 - - - Mostly clear 10 - - - -
03/04:00pm 18.8 - - - 1018.3 - - - Mostly clear 10 - - - -
03/03:30pm 19.2 - - - 1018.3 - - - Mostly clear 10 - - - -
03/03:00pm 19.2 - - - 1018.1 R 0.0 Fine Mostly clear 30 - - - -
03/02:30pm 18.8 - - - 1018.3 - - - Mostly clear 10 - - - -
03/02:00pm 18.8 - - - 1018.3 - - - Mostly clear 10 - - - -
03/01:30pm 19.0 - - - 1018.7 - - - Mostly clear 10 - - - -
03/01:00pm 18.6 - - - 1018.8 - - - - - - - - -
03/12:30pm 19.2 - - - 1019.3 - - - Mostly clear 10 - - - -
03/12:00pm 18.7 - - - 1019.6 F - Fine Mostly clear 30 - - - -
03/11:30am 17.7 - - - 1020.1 - - - Mostly clear 10 - - - -
03/11:00am 17.2 - - - 1020.5 - - - Mostly clear 10 - - - -
03/10:30am 17.0 - - - 1020.9 - - - - - - - - -
03/10:00am 16.5 - - - 1021.0 - - - Mostly clear 10 - - - -
03/09:30am 15.7 - - - 1021.1 - - - Mostly clear 10 - - - -
03/09:00am 14.9 - - - 1020.9 S 0.0 Fine Mostly clear 30 - - - -
03/08:30am 14.5 - - - 1020.9 - - - Mostly clear 10 - - - -
03/08:00am 14.3 - - - 1020.6 - - - Mostly clear 10 - - - -
03/07:30am 13.6 - - - 1020.4 - - - Mostly clear 10 - - - -
03/07:00am 13.6 - - - 1019.8 - - - Mostly clear 10 - - - -
03/06:30am 14.2 - - - 1019.7 - - - - - - - - -
03/06:00am 14.3 - - - 1019.3 R - Fine Mostly clear 30 - - - -
03/05:30am 14.9 - - - 1019.0 - - - - - - - - -
03/05:00am 15.1 - - - 1018.8 - - - - - - - - -
03/04:30am 15.2 - - - 1018.7 - - - - - - - - -
03/04:00am 15.5 - - - 1018.4 - - - - - - - - -
03/03:30am 15.1 - - - 1018.6 - - - - - - - - -
03/03:00am 14.3 - - - 1018.6 - 0.0 - - - - - - -
03/02:30am 14.4 - - - 1018.7 - - - - - - - - -
03/02:00am 14.3 - - - 1018.9 - - - - - - - - -
03/01:30am 14.3 - - - 1019.2 - - - - - - - - -
03/01:00am 14.6 - - - 1019.4 - - - - - - - - -
03/12:30am 15.0 - - - 1019.6 - - - - - - - - -
03/12:00am 15.3 - - - 1019.6 - - - Mostly clear - - - - -
 
Date/Time
EST
Temp

°C
Wind Pressure Rain
since 9am
mm
Weather Cloud Vis
km
Sea
Height
m
Swell
Dir
 
Speed
knots
Gust
knots
hPa Trend Height
m
Period
s
Dir
02/11:30pm 15.4 - - - 1019.9 - - - - - - - - -
02/11:00pm 15.5 - - - 1020.1 - - - - - - - - -
02/10:30pm 15.7 - - - 1020.1 - - - - - - - - -
02/10:00pm 15.9 - - - 1020.1 - - - - - - - - -
02/09:30pm 16.3 - - - 1020.3 - - - - - - - - -
02/09:00pm 16.8 - - - 1020.1 F 0.0 - - - - - - -
02/08:30pm 18.2 - - - 1020.1 - - - - - - - - -
02/08:00pm 18.6 - - - 1019.9 - - - - - - - - -
02/07:30pm 18.8 - - - 1019.8 - - - - - - - - -
02/07:00pm 19.1 - - - 1019.5 - - - - - - - - -
02/06:30pm 19.1 - - - 1019.2 - - - - - - - - -
02/06:00pm 19.4 - - - 1018.7 F - - - - - - - -
02/05:30pm 19.7 - - - 1018.6 - - - - - - - - -
02/05:00pm 20.1 - - - 1018.5 - - - - - - - - -
02/04:30pm 20.4 - - - 1018.7 - - - - - - - - -
02/04:00pm 20.6 - - - 1018.4 - - - - - - - - -
02/03:30pm 20.9 - - - 1018.5 - - - - - - - - -
02/03:00pm 20.7 - - - 1018.4 R 0.0 - - - - - - -
02/02:30pm 20.9 - - - 1018.6 - - - - - - - - -
02/02:00pm 21.1 - - - 1018.7 - - - - - - - - -
02/01:30pm 21.0 - - - 1019.0 - - - - - - - - -
02/01:00pm 21.5 - - - 1019.3 - - - - - - - - -
02/12:30pm 21.9 - - - 1019.7 - - - - - - - - -
02/12:00pm 21.9 - - - 1020.0 F - - - - - - - -
02/11:30am 21.3 - - - 1020.8 - - - - - - - - -
02/11:00am 21.1 - - - 1021.2 - - - - - - - - -
02/10:30am 21.3 - - - 1021.7 - - - - - - - - -
02/10:00am 20.2 - - - 1021.9 - - - - - - - - -
02/09:30am 19.4 - - - 1022.2 - - - - - - - - -
02/09:00am 18.6 - - - 1022.1 R 0.2 - - - - - - -
02/08:30am 16.9 - - - 1021.9 - - - - - - - - -
02/08:00am 15.8 - - - 1021.5 - - - - - - - - -
02/07:30am 14.8 - - - 1021.4 - - - - - - - - -
02/07:00am 14.5 - - - 1021.0 - - - - - - - - -
02/06:30am 14.6 - - - 1020.7 - - - - - - - - -
02/06:00am 14.8 - - - 1020.3 S - - Mostly clear - - - - -
02/05:30am 14.9 - - - 1020.2 - - - - - - - - -
02/05:00am 15.1 - - - 1020.0 - - - - - - - - -
02/04:30am 15.2 - - - 1020.0 - - - - - - - - -
02/04:00am 15.4 - - - 1020.0 - - - - - - - - -
02/03:30am 15.5 - - - 1020.0 - - - - - - - - -

Other Formats:

Comma delimited format used in spreadsheet applications
http://www.bom.gov.au/fwo/IDQ60701/IDQ60701.94367.axf

JavaScript Object Notation format (JSON) in row-major order
http://www.bom.gov.au/fwo/IDQ60701/IDQ60701.94367.json